Погода в Кальете

Португалия     32°43′34″N   17°10′46″W
темп.,
°C
ветер,
м/с
пор.,
м/с
влажн.,
%
обл.,
%
осадки,
мм/ч
давл.,
гПа
погр.,
м
5 марта, пт
пт500:00+16сз7109186 0.6 1020626
03:00+15ссз8108987 0.6 1019677
06:00+14ссз898492 0.8 1019859
09:00+14с81078100 0.1 1019960
12:00+15с898286 0.4 1020870
15:00+14с8107678 0.2 10191068
18:00+14ссв8107777 0.3 10201051
21:00+14с8117963 0.2 10211125
6 марта, сб
сб600:00+14ссв8117877 0.5 10211140
03:00+14ссв8118180 0.4 10211168
06:00+14ссв8128085 0.9 10211298
09:00+14ссв8118097 0.3 10231248
12:00+14ссв798099 0.6 1024968
15:00+14ссв797995 0.1 1024897
18:00+14ссв797975 0.2 1024641
21:00+13ссв788244 0.0 1026449
7 марта, вс
вс700:00+13ссв787943 0.0 1026438
03:00+13ссв78801 0.0 1026455
06:00+12ссв788010 0.0 1025531
09:00+13ссв677412 0.0 1026490
12:00+15с67656 0.0 1027598
15:00+15с776935 0.0 1025498
18:00+14ссв677618 0.0 1024499
21:00+13ссв348127 0.0 1024255
8 марта, пн
пн800:00+14ссв348339 0.0 1024319
03:00+14св337972 0.0 1023185
06:00+14св337682 0.0 1022204
09:00+15св337569 0.0 1023261
12:00+17всв236949 0.1 1024591
15:00+16св227539 0.1 1023613
18:00+15св557947 0.2 1024618
21:00+13св668232 0.1 1025439
9 марта, вт
вт900:00+13св567622 0.1 1026310
03:00+12св56800 0.0 1025401
06:00+12св56787 0.0 1024466
09:00+13св677316 0.1 1025519
12:00+15св566622 0.1 1026580
15:00+15св336552 0.0 1025717
18:00+14св676925 0.0 1024504
21:00+12св56770 0.0 1026279